This is the latest recevied weather packets stored in our database for station/object KP4DJT. If no packets are shown the sender has not sent any weather packets the latest 10 day(s).
| Time | Temp. | Humidity | Pressure | Rain* | Wind** | Luminosity | Snow |
|---|---|---|---|---|---|---|---|
| 1777278740 | 23.89° C | 82% | 1001.1 hPa | 0 mm | - | 0 W/m² | - |
| 1777275741 | 23.89° C | 82% | 1001.8 hPa | 0 mm | - | 0 W/m² | - |
| 1777275138 | 23.89° C | 82% | 1001.8 hPa | 0 mm | - | 0 W/m² | - |
| 1777273338 | 23.89° C | 82% | 1001.6 hPa | 0 mm | - | 0 W/m² | - |
| 1777272138 | 23.89° C | 82% | 1001.4 hPa | 0 mm | - | 0 W/m² | - |
| 1777271539 | 24.44° C | 82% | 1001.9 hPa | 0 mm | - | 0 W/m² | - |
| 1777269739 | 24.44° C | 81% | 1001.7 hPa | 0 mm | - | 0 W/m² | - |
| 1777268539 | 24.44° C | 82% | 1001.7 hPa | 0 mm | - | 0 W/m² | - |
| 1777265540 | 24.44° C | 81% | 1002.5 hPa | 0 mm | - | 0 W/m² | - |
| 1777264940 | 24.44° C | 81% | 1002.7 hPa | 0 mm | - | 0 W/m² | - |
| 1777261940 | 24.44° C | 81% | 1002.8 hPa | 0 mm | - | 0 W/m² | - |
| 1777255339 | 25.56° C | 74% | 1002.4 hPa | 0 mm | - | 0 W/m² | - |
| 1777248761 | 27.78° C | 63% | 1002.5 hPa | 0 mm | - | 92 W/m² | - |
| 1777247538 | 28.33° C | 63% | 1002.5 hPa | 0 mm | - | 159 W/m² | - |
| 1777240939 | 28.89° C | 59% | 1002.4 hPa | 0 mm | - | 552 W/m² | - |
| 1777232538 | 28.33° C | 62% | 1004.2 hPa | 0 mm | - | 290 W/m² | - |
| 1777230139 | 27.22° C | 66% | 1004.8 hPa | 0 mm | - | 1026 W/m² | - |
| 1777228939 | 26.67° C | 67% | 1005 hPa | 0 mm | - | 539 W/m² | - |
| 1777224760 | 25.56° C | 69% | 1005.8 hPa | 0 mm | - | 310 W/m² | - |
| 1777224160 | 26.11° C | 70% | 1005.8 hPa | 0 mm | - | 619 W/m² | - |
| 1777222357 | 25° C | 71% | 1006.1 hPa | 0 mm | - | 635 W/m² | - |
| 1777218141 | 23.33° C | 70% | 1007 hPa | 0 mm | - | 597 W/m² | - |
| 1777213939 | 21.11° C | 76% | 1007.1 hPa | 0 mm | - | 356 W/m² | - |
| 1777206740 | 18.33° C | 93% | 1007.2 hPa | 0 mm | - | 33 W/m² | - |
| 1777200739 | 18.33° C | 95% | 1006.8 hPa | 0 mm | - | 0 W/m² | - |
* Rain latest hour (hover to see other rain measurements)
** Current wind speed in m/s (hover to see current wind gust speed)